Change the Weather History Date:

Tuesday, April 22, 2014

  Actual Average Record
Temperature  
Mean Temperature 68 °F -  
Max Temperature 86 °F 75 °F 92 °F (2012)
Min Temperature 51 °F 45 °F 37 °F (2008)
Cooling Degree Days 4    
Growing Degree Days 18 (Base 50)    
Moisture  
Dew Point 37 °F    
Average Humidity 28    
Maximum Humidity 54    
Minimum Humidity 12    
Precipitation  
Precipitation 0.00 in - - ()
Sea Level Pressure  
Sea Level Pressure 29.84 in    
Wind  
Wind Speed 10 mph (South)    
Max Wind Speed 22 mph    
Max Gust Speed 32 mph    
Visibility 10 miles    
Events      
Averages and records for this station are not official NWS values.
T = Trace of Precipitation, MM = Missing Value Source: NWS Daily Summary

Daily Weather History Graph

Daily Weather History Graph

Search for Another Location

Airport or City:

Trip Planner

Search our weather history database for the weather conditions in past years. The results will help you decide how hot, cold, wet, or windy it might be!

Date:

Astronomy

Apr. 22, 2014 Rise Set
Actual Time 6:26 AM MDT 7:39 PM MDT
Civil Twilight 6:00 AM MDT 8:05 PM MDT
Nautical Twilight 5:30 AM MDT 8:36 PM MDT
Astronomical Twilight 4:58 AM MDT 9:08 PM MDT
Moon 1:55 AM MDT (4/22) 1:05 PM MDT (4/22)
Length of Visible Light 14h 04m
Length of Day
13h 13m
Last Quarter, 45% of the Moon is Illuminated
Apr 22
Last Quarter
Apr 29
New
May 6
First Quarter
May 14
Full
May 21
Last Quarter

Hourly Weather History & Observations

Time (MDT) Temp. Dew Point Humidity Pressure Visibility Wind Dir Wind Speed Gust Speed Precip Events Conditions
12:58 AM 59.4 °F 34.2 °F 39% 29.91 in 10.0 mi Calm Calm - N/A   Partly Cloudy
1:58 AM 57.6 °F 34.3 °F 42% 29.91 in 10.0 mi North 12.7 mph - N/A   Partly Cloudy
2:58 AM 56.8 °F 35.1 °F 44% 29.90 in 10.0 mi NNW 8.1 mph - N/A   Mostly Cloudy
3:58 AM 57.7 °F 36.0 °F 44% 29.90 in 10.0 mi NW 4.6 mph - N/A   Scattered Clouds
4:58 AM 58.6 °F 36.0 °F 43% 29.91 in 10.0 mi West 4.6 mph - N/A   Partly Cloudy
5:58 AM 53.6 °F 35.6 °F 51% 30.10 in 10.0 mi Calm Calm - N/A   Clear
6:58 AM 51.4 °F 35.1 °F 54% 29.95 in 10.0 mi NNE 2.3 mph - N/A   Clear
7:58 AM 63.0 °F 40.3 °F 43% 29.96 in 10.0 mi West 6.9 mph - N/A   Clear
8:58 AM 68.7 °F 40.8 °F 36% 29.95 in 10.0 mi West 3.5 mph - N/A   Clear
9:58 AM 71.6 °F 40.1 °F 32% 29.93 in 10.0 mi SSE 5.8 mph - N/A   Clear
10:58 AM 78.6 °F 42.4 °F 28% 29.91 in 10.0 mi South 15.0 mph - N/A   Clear
11:58 AM 80.1 °F 43.7 °F 28% 29.88 in 10.0 mi SE 20.7 mph 27.6 mph N/A   Clear
12:23 PM 82.4 °F 42.8 °F 25% 30.04 in 10.0 mi South 18.4 mph 26.5 mph N/A   Clear
12:58 PM 82.9 °F 43.5 °F 25% 29.84 in 10.0 mi SSE 19.6 mph 24.2 mph N/A   Clear
1:26 PM 82.4 °F 42.8 °F 25% 29.99 in 10.0 mi SE 17.3 mph 27.6 mph N/A   Partly Cloudy
1:58 PM 85.3 °F 40.6 °F 21% 29.78 in 10.0 mi SSE 20.7 mph 27.6 mph N/A   Clear
2:39 PM 84.2 °F 39.2 °F 20% 29.95 in 10.0 mi South 16.1 mph 24.2 mph N/A   Partly Cloudy
2:40 PM 84.2 °F 39.2 °F 20% 29.95 in 10.0 mi WSW 16.1 mph 24.2 mph N/A   Partly Cloudy
2:58 PM 85.5 °F 37.6 °F 18% 29.75 in 10.0 mi WNW 16.1 mph 32.2 mph N/A   Clear
3:14 PM 86.0 °F 35.6 °F 17% 29.93 in 10.0 mi West 11.5 mph 29.9 mph N/A   Clear
3:57 PM 86.0 °F 32.0 °F 14% 29.89 in 10.0 mi SSE 18.4 mph 24.2 mph N/A   Partly Cloudy
3:58 PM 86.2 °F 32.9 °F 15% 29.70 in 10.0 mi SSE 17.3 mph 24.2 mph N/A   Clear
4:33 PM 86.0 °F 32.0 °F 14% 29.87 in 10.0 mi South 17.3 mph 23.0 mph N/A   Clear
4:58 PM 85.6 °F 28.0 °F 12% 29.67 in 10.0 mi South 18.4 mph 28.8 mph N/A   Clear
5:58 PM 85.1 °F 29.7 °F 13% 29.66 in 10.0 mi South 16.1 mph - N/A   Clear
6:58 PM 84.2 °F 30.2 °F 14% 29.65 in 10.0 mi South 16.1 mph - N/A   Clear
7:58 PM 79.2 °F 34.0 °F 19% 29.63 in 10.0 mi SSE 9.2 mph - N/A   Clear
8:58 PM 75.4 °F 32.2 °F 21% 29.64 in 10.0 mi South 6.9 mph - N/A   Partly Cloudy
9:58 PM 76.1 °F 41.2 °F 29% 29.64 in 10.0 mi SSE 21.9 mph 28.8 mph N/A   Partly Cloudy
10:58 PM 75.9 °F 39.2 °F 27% 29.65 in 10.0 mi SSE 13.8 mph 31.1 mph N/A   Clear
11:58 PM 74.7 °F 39.7 °F 28% 29.62 in 10.0 mi SE 21.9 mph 27.6 mph N/A   Clear